| time (UTC) | temp F | wind direction | speed MPH | gust MPH | rain 1hr in | rain 24hr in | rain mn in | humidity % | barometer mb |
| 20260904110017 | 66 | 293 | 3.0 | 6.0 | 0.00 | 0.27 | 0.00 | 91 | 1007.8 |
| 20260904105517 | 66 | 293 | 3.0 | 4.0 | 0.00 | 0.27 | 0.00 | 91 | 1007.7 |
| 20260904105037 | 66 | 315 | 2.0 | 3.0 | 0.00 | 0.27 | 0.00 | 91 | 1007.6 |
| 20260904104516 | 66 | 338 | 1.0 | 2.0 | 0.00 | 0.27 | 0.00 | 91 | 1007.6 |
| 20260904104016 | 66 | 315 | 1.0 | 2.0 | 0.00 | 0.27 | 0.00 | 91 | 1007.6 |
| 20260904103516 | 66 | 315 | 1.0 | 3.0 | 0.00 | 0.27 | 0.00 | 91 | 1007.5 |
| 20260904103016 | 66 | 315 | 2.0 | 3.0 | 0.00 | 0.27 | 0.00 | 91 | 1007.4 |
| 20260904102516 | 66 | 23 | 3.0 | 4.0 | 0.00 | 0.27 | 0.00 | 91 | 1007.4 |
| 20260904102016 | 66 | 23 | 2.0 | 4.0 | 0.00 | 0.27 | 0.00 | 91 | 1007.4 |
| 20260904101516 | 66 | 23 | 2.0 | 3.0 | 0.00 | 0.27 | 0.00 | 91 | 1007.3 |
| 20260904101016 | 66 | 338 | 1.0 | 3.0 | 0.00 | 0.27 | 0.00 | 91 | 1007.3 |
| 20260904100537 | 66 | 0 | 1.0 | 1.0 | 0.00 | 0.27 | 0.00 | 91 | 1007.4 |
| 20260904100016 | 66 | 315 | 1.0 | 2.0 | 0.00 | 0.39 | 0.00 | 91 | 1007.5 |
| 20260904095516 | 66 | 248 | 1.0 | 3.0 | 0.00 | 0.39 | 0.00 | 91 | 1007.4 |
| 20260904095016 | 66 | 248 | 2.0 | 4.0 | 0.00 | 0.39 | 0.00 | 91 | 1007.5 |
| 20260904094516 | 66 | 225 | 2.0 | 3.0 | 0.00 | 0.39 | 0.00 | 91 | 1007.5 |
| 20260904094016 | 66 | 248 | 2.0 | 3.0 | 0.00 | 0.39 | 0.00 | 91 | 1007.5 |
| 20260904093517 | 66 | 270 | 1.0 | 2.0 | 0.00 | 0.39 | 0.00 | 91 | 1007.4 |
| 20260904093016 | 66 | 270 | 1.0 | 3.0 | 0.00 | 0.39 | 0.00 | 91 | 1007.4 |
| 20260904092516 | 66 | 248 | 1.0 | 2.0 | 0.00 | 0.39 | 0.00 | 91 | 1007.6 |
| 20260904092036 | 66 | 270 | 1.0 | 2.0 | 0.00 | 0.39 | 0.00 | 91 | 1007.5 |
| 20260904091515 | 66 | 293 | 2.0 | 3.0 | 0.00 | 0.39 | 0.00 | 91 | 1007.5 |
| 20260904091016 | 66 | 270 | 1.0 | 2.0 | 0.00 | 0.39 | 0.00 | 91 | 1007.5 |
| 20260904090516 | 66 | 315 | 1.0 | 2.0 | 0.00 | 0.39 | 0.00 | 91 | 1007.3 |
| 20260904090016 | 66 | 270 | 2.0 | 3.0 | 0.00 | 0.39 | 0.00 | 91 | 1007.4 |
| 20260904085516 | 65 | 270 | 2.0 | 3.0 | 0.00 | 0.39 | 0.00 | 91 | 1007.5 |
| 20260904085056 | 65 | 248 | 3.0 | 4.0 | 0.00 | 0.39 | 0.00 | 91 | 1007.6 |
| 20260904084516 | 65 | 270 | 2.0 | 3.0 | 0.00 | 0.39 | 0.00 | 91 | 1007.5 |
| 20260904084016 | 65 | 338 | 1.0 | 2.0 | 0.00 | 0.39 | 0.00 | 91 | 1007.6 |
| 20260904083516 | 65 | 338 | 1.0 | 2.0 | 0.00 | 0.39 | 0.00 | 91 | 1007.6 |
| 20260904083036 | 65 | 0 | 1.0 | 1.0 | 0.00 | 0.39 | 0.00 | 91 | 1007.6 |
| 20260904082516 | 65 | 45 | 1.0 | 2.0 | 0.00 | 0.39 | 0.00 | 91 | 1007.5 |
| 20260904082016 | 65 | 270 | 1.0 | 3.0 | 0.00 | 0.39 | 0.00 | 91 | 1007.6 |
| 20260904081516 | 65 | 248 | 2.0 | 4.0 | 0.00 | 0.39 | 0.00 | 91 | 1007.7 |
| 20260904081016 | 65 | 248 | 4.0 | 5.0 | 0.00 | 0.39 | 0.00 | 91 | 1007.7 |
| 20260904080516 | 65 | 248 | 3.0 | 4.0 | 0.00 | 0.39 | 0.00 | 91 | 1007.7 |
| 20260904080016 | 65 | 225 | 3.0 | 4.0 | 0.00 | 0.39 | 0.00 | 91 | 1007.7 |
| 20260904075516 | 65 | 225 | 3.0 | 4.0 | 0.00 | 0.39 | 0.00 | 91 | 1007.7 |
| 20260904075016 | 65 | 225 | 3.0 | 4.0 | 0.00 | 0.39 | 0.00 | 91 | 1007.7 |
| 20260904074536 | 65 | 248 | 3.0 | 5.0 | 0.00 | 0.39 | 0.00 | 91 | 1007.8 |
| 20260904074016 | 65 | 248 | 3.0 | 5.0 | 0.00 | 0.39 | 0.00 | 91 | 1007.8 |
| 20260904073516 | 65 | 270 | 2.0 | 3.0 | 0.00 | 0.39 | 0.00 | 91 | 1007.8 |
| 20260904073016 | 65 | 248 | 3.0 | 5.0 | 0.00 | 0.39 | 0.00 | 91 | 1007.8 |
| 20260904072516 | 65 | 248 | 4.0 | 6.0 | 0.00 | 0.39 | 0.00 | 91 | 1007.8 |
| 20260904072016 | 65 | 225 | 4.0 | 5.0 | 0.00 | 0.39 | 0.00 | 91 | 1007.9 |
| 20260904071516 | 65 | 248 | 2.0 | 4.0 | 0.00 | 0.39 | 0.00 | 91 | 1007.9 |
| 20260904071016 | 65 | 248 | 2.0 | 3.0 | 0.00 | 0.39 | 0.00 | 91 | 1007.9 |
| 20260904070515 | 65 | 270 | 2.0 | 3.0 | 0.00 | 0.39 | 0.00 | 91 | 1007.8 |
| 20260904070015 | 65 | 270 | 2.0 | 3.0 | 0.00 | 0.39 | 0.00 | 90 | 1007.9 |
| 20260904065516 | 65 | 270 | 2.0 | 3.0 | 0.00 | 0.39 | 0.00 | 90 | 1008.0 |
| 20260904065015 | 65 | 248 | 2.0 | 3.0 | 0.00 | 0.39 | 0.00 | 90 | 1008.0 |
| 20260904064538 | 65 | 248 | 1.0 | 3.0 | 0.00 | 0.39 | 0.00 | 90 | 1008.0 |
| 20260904064015 | 65 | 248 | 1.0 | 2.0 | 0.00 | 0.39 | 0.00 | 90 | 1008.0 |
| 20260904063516 | 65 | 203 | 2.0 | 5.0 | 0.00 | 0.39 | 0.00 | 91 | 1008.0 |
| 20260904063015 | 65 | 203 | 3.0 | 5.0 | 0.00 | 0.39 | 0.00 | 90 | 1007.9 |
| 20260904062516 | 65 | 225 | 3.0 | 4.0 | 0.00 | 0.39 | 0.00 | 91 | 1008.1 |
| 20260904062016 | 65 | 203 | 4.0 | 6.0 | 0.00 | 0.39 | 0.00 | 91 | 1008.2 |
| 20260904061536 | 65 | 203 | 4.0 | 5.0 | 0.00 | 0.39 | 0.00 | 91 | 1008.4 |
| 20260904061015 | 65 | 203 | 3.0 | 4.0 | 0.00 | 0.39 | 0.00 | 91 | 1008.4 |
| 20260904060516 | 65 | 225 | 3.0 | 4.0 | 0.00 | 0.39 | 0.00 | 91 | 1008.5 |
| 20260904060036 | 65 | 225 | 1.0 | 2.0 | 0.00 | 0.39 | 0.00 | 91 | 1008.7 |
| 20260904055516 | 65 | 225 | 1.0 | 1.0 | 0.00 | 0.39 | 0.00 | 91 | 1008.7 |
| 20260904055036 | 65 | 0 | 1.0 | 2.0 | 0.00 | 0.39 | 0.00 | 91 | 1008.7 |
| 20260904054516 | 65 | 0 | 2.0 | 2.0 | 0.00 | 0.39 | 0.00 | 91 | 1008.7 |
| 20260904054036 | 65 | 270 | 1.0 | 2.0 | 0.00 | 0.39 | 0.00 | 91 | 1008.9 |
| 20260904053515 | 65 | 45 | 1.0 | 2.0 | 0.00 | 0.39 | 0.00 | 91 | 1008.9 |
| 20260904053015 | 65 | 180 | 1.0 | 3.0 | 0.00 | 0.39 | 0.00 | 91 | 1008.9 |
| 20260904052515 | 65 | 203 | 3.0 | 6.0 | 0.00 | 0.39 | 0.00 | 91 | 1008.8 |
| 20260904052015 | 65 | 203 | 7.0 | 10.0 | 0.00 | 0.39 | 0.00 | 91 | 1008.6 |
| 20260904051515 | 65 | 180 | 8.0 | 10.0 | 0.00 | 0.39 | 0.00 | 91 | 1008.5 |
| 20260904051015 | 65 | 180 | 8.0 | 10.0 | 0.00 | 0.39 | 0.00 | 91 | 1008.5 |
| 20260904050516 | 65 | 180 | 8.0 | 10.0 | 0.00 | 0.39 | 0.00 | 91 | 1008.7 |
| 20260904050015 | 65 | 180 | 7.0 | 9.0 | 0.00 | 0.39 | 0.00 | 90 | 1008.8 |
| 20260904045515 | 65 | 180 | 6.0 | 8.0 | 0.00 | 0.39 | 0.00 | 91 | 1008.9 |
| 20260904045015 | 65 | 180 | 6.0 | 8.0 | 0.00 | 0.39 | 0.00 | 90 | 1009.0 |
| 20260904044516 | 65 | 158 | 5.0 | 7.0 | 0.00 | 0.39 | 0.00 | 90 | 1009.0 |
| 20260904044016 | 65 | 135 | 3.0 | 7.0 | 0.00 | 0.39 | 0.00 | 90 | 1009.1 |
| 20260904043515 | 65 | 135 | 4.0 | 6.0 | 0.00 | 0.39 | 0.00 | 90 | 1009.2 |
| 20260904043016 | 65 | 135 | 4.0 | 7.0 | 0.00 | 0.39 | 0.00 | 90 | 1009.2 |
| 20260904042516 | 65 | 135 | 4.0 | 6.0 | 0.00 | 0.39 | 0.00 | 90 | 1009.4 |
| 20260904042015 | 65 | 113 | 4.0 | 7.0 | 0.00 | 0.39 | 0.00 | 90 | 1009.4 |
| 20260904041515 | 64 | 113 | 5.0 | 7.0 | 0.00 | 0.39 | 0.00 | 90 | 1009.4 |
| 20260904041017 | 65 | 90 | 6.0 | 9.0 | 0.00 | 0.39 | 0.00 | 90 | 1009.5 |
| 20260904040517 | 65 | 113 | 6.0 | 9.0 | 0.00 | 0.39 | 0.00 | 90 | 1009.4 |
| 20260904040017 | 64 | 68 | 8.0 | 9.0 | 0.00 | 0.39 | 0.39 | 90 | 1009.6 |
| 20260904035516 | 65 | 68 | 7.0 | 10.0 | 0.00 | 0.39 | 0.39 | 90 | 1009.6 |
| 20260904035016 | 64 | 45 | 9.0 | 14.0 | 0.00 | 0.39 | 0.39 | 90 | 1009.9 |
| 20260904034516 | 64 | 68 | 8.0 | 13.0 | 0.00 | 0.39 | 0.39 | 90 | 1010.0 |
| 20260904034016 | 65 | 113 | 6.0 | 8.0 | 0.00 | 0.39 | 0.39 | 90 | 1009.6 |
| 20260904033516 | 65 | 113 | 5.0 | 7.0 | 0.00 | 0.39 | 0.39 | 90 | 1009.6 |
| 20260904033016 | 65 | 113 | 6.0 | 8.0 | 0.00 | 0.39 | 0.39 | 90 | 1009.7 |
| 20260904032516 | 65 | 113 | 5.0 | 8.0 | 0.00 | 0.39 | 0.39 | 90 | 1009.8 |
| 20260904032016 | 65 | 113 | 5.0 | 8.0 | 0.00 | 0.39 | 0.39 | 90 | 1009.8 |
| 20260904031517 | 65 | 113 | 6.0 | 9.0 | 0.00 | 0.39 | 0.39 | 90 | 1009.8 |
| 20260904031016 | 64 | 113 | 6.0 | 10.0 | 0.00 | 0.39 | 0.39 | 90 | 1009.8 |
| 20260904030516 | 65 | 113 | 7.0 | 10.0 | 0.00 | 0.39 | 0.39 | 90 | 1009.7 |
| 20260904030016 | 65 | 113 | 7.0 | 10.0 | 0.00 | 0.39 | 0.39 | 90 | 1009.8 |
| 20260904025516 | 65 | 113 | 7.0 | 9.0 | 0.00 | 0.39 | 0.39 | 90 | 1009.9 |
| 20260904025016 | 65 | 113 | 7.0 | 10.0 | 0.00 | 0.39 | 0.39 | 90 | 1009.9 |
| 20260904024536 | 65 | 113 | 5.0 | 8.0 | 0.00 | 0.39 | 0.39 | 90 | 1009.8 |
| 20260904024016 | 65 | 113 | 7.0 | 10.0 | 0.00 | 0.39 | 0.39 | 89 | 1009.7 |
| 20260904023516 | 65 | 113 | 6.0 | 9.0 | 0.00 | 0.39 | 0.39 | 89 | 1009.8 |
| 20260904023015 | 65 | 113 | 8.0 | 10.0 | 0.00 | 0.39 | 0.39 | 89 | 1009.8 |
| 20260904022516 | 65 | 113 | 6.0 | 8.0 | 0.00 | 0.39 | 0.39 | 89 | 1010.0 |
| 20260904022016 | 65 | 113 | 6.0 | 9.0 | 0.00 | 0.39 | 0.39 | 89 | 1010.0 |
| 20260904021536 | 65 | 113 | 7.0 | 9.0 | 0.00 | 0.39 | 0.39 | 89 | 1010.0 |
| 20260904021015 | 65 | 113 | 5.0 | 8.0 | 0.00 | 0.39 | 0.39 | 89 | 1010.0 |
| 20260904020515 | 66 | 113 | 7.0 | 9.0 | 0.00 | 0.39 | 0.39 | 89 | 1010.0 |
| 20260904020015 | 66 | 113 | 6.0 | 8.0 | 0.00 | 0.39 | 0.39 | 89 | 1010.1 |
| 20260904015536 | 66 | 113 | 5.0 | 8.0 | 0.00 | 0.39 | 0.39 | 89 | 1010.1 |
| 20260904015015 | 66 | 90 | 7.0 | 10.0 | 0.00 | 0.39 | 0.39 | 89 | 1010.1 |
| 20260904014515 | 66 | 113 | 7.0 | 8.0 | 0.00 | 0.39 | 0.39 | 89 | 1010.1 |
| 20260904014015 | 66 | 113 | 5.0 | 8.0 | 0.00 | 0.39 | 0.39 | 89 | 1010.2 |
| 20260904013516 | 67 | 113 | 6.0 | 7.0 | 0.00 | 0.39 | 0.39 | 89 | 1010.3 |
| 20260904013016 | 67 | 90 | 6.0 | 8.0 | 0.00 | 0.39 | 0.39 | 88 | 1010.3 |
| 20260904012515 | 67 | 90 | 6.0 | 8.0 | 0.00 | 0.39 | 0.39 | 89 | 1010.4 |
| 20260904012015 | 67 | 113 | 5.0 | 7.0 | 0.00 | 0.39 | 0.39 | 89 | 1010.2 |
| 20260904011515 | 67 | 113 | 5.0 | 8.0 | 0.00 | 0.39 | 0.39 | 89 | 1010.2 |
| 20260904011015 | 67 | 113 | 6.0 | 8.0 | 0.00 | 0.39 | 0.39 | 88 | 1010.1 |
| 20260904010515 | 67 | 113 | 6.0 | 7.0 | 0.00 | 0.39 | 0.39 | 88 | 1009.9 |
| 20260904010015 | 67 | 113 | 6.0 | 8.0 | 0.00 | 0.39 | 0.39 | 88 | 1009.9 |
| 20260904005515 | 67 | 90 | 7.0 | 10.0 | 0.00 | 0.39 | 0.39 | 88 | 1009.9 |
| 20260904005015 | 67 | 90 | 8.0 | 10.0 | 0.00 | 0.39 | 0.39 | 88 | 1009.9 |
| 20260904004515 | 67 | 90 | 8.0 | 10.0 | 0.00 | 0.39 | 0.39 | 88 | 1009.8 |
| 20260904004015 | 67 | 90 | 7.0 | 10.0 | 0.00 | 0.39 | 0.39 | 88 | 1009.8 |
| 20260904003515 | 67 | 90 | 6.0 | 9.0 | 0.00 | 0.39 | 0.39 | 88 | 1009.8 |
| 20260904003056 | 67 | 90 | 5.0 | 7.0 | 0.00 | 0.39 | 0.39 | 88 | 1009.8 |
| 20260904002516 | 67 | 90 | 6.0 | 8.0 | 0.00 | 0.39 | 0.39 | 88 | 1009.9 |
| 20260904002015 | 67 | 90 | 7.0 | 10.0 | 0.00 | 0.39 | 0.39 | 88 | 1009.8 |
| 20260904001536 | 67 | 68 | 9.0 | 10.0 | 0.00 | 0.39 | 0.39 | 88 | 1009.7 |
| 20260904001015 | 67 | 90 | 7.0 | 9.0 | 0.00 | 0.39 | 0.39 | 88 | 1009.7 |
| 20260904000515 | 67 | 90 | 7.0 | 9.0 | 0.00 | 0.39 | 0.39 | 88 | 1009.5 |
| 20260904000015 | 67 | 90 | 9.0 | 11.0 | 0.00 | 0.39 | 0.39 | 88 | 1009.3 |
| 20260903235516 | 67 | 68 | 10.0 | 12.0 | 0.00 | 0.39 | 0.39 | 87 | 1009.2 |
| 20260903235016 | 67 | 68 | 10.0 | 12.0 | 0.00 | 0.39 | 0.39 | 87 | 1009.3 |
| 20260903234515 | 67 | 68 | 10.0 | 12.0 | 0.00 | 0.39 | 0.39 | 87 | 1009.4 |
| 20260903234035 | 67 | 68 | 9.0 | 12.0 | 0.00 | 0.39 | 0.39 | 87 | 1009.5 |
| 20260903233515 | 67 | 68 | 9.0 | 11.0 | 0.00 | 0.39 | 0.39 | 87 | 1009.4 |
| 20260903233015 | 67 | 68 | 10.0 | 13.0 | 0.00 | 0.39 | 0.39 | 87 | 1009.5 |
| 20260903232536 | 68 | 68 | 10.0 | 12.0 | 0.00 | 0.39 | 0.39 | 87 | 1009.2 |
| 20260903232015 | 68 | 68 | 8.0 | 10.0 | 0.00 | 0.39 | 0.39 | 87 | 1009.4 |
| 20260903231536 | 68 | 90 | 9.0 | 10.0 | 0.00 | 0.39 | 0.39 | 87 | 1009.2 |
| 20260903231038 | 68 | 68 | 9.0 | 11.0 | 0.00 | 0.39 | 0.39 | 87 | 1009.2 |
| 20260903230517 | 68 | 68 | 9.0 | 11.0 | 0.00 | 0.39 | 0.39 | 86 | 1009.3 |
| 20260903230017 | 68 | 68 | 8.0 | 9.0 | 0.00 | 0.39 | 0.39 | 86 | 1009.5 |
| 20260903225517 | 68 | 68 | 7.0 | 8.0 | 0.00 | 0.39 | 0.39 | 86 | 1009.6 |
| 20260903225017 | 69 | 68 | 4.0 | 6.0 | 0.00 | 0.39 | 0.39 | 86 | 1009.7 |
| 20260903224517 | 69 | 45 | 4.0 | 7.0 | 0.00 | 0.39 | 0.39 | 86 | 1009.9 |
| 20260903224017 | 69 | 45 | 6.0 | 9.0 | 0.00 | 0.39 | 0.39 | 86 | 1010.0 |
| 20260903223518 | 69 | 45 | 7.0 | 10.0 | 0.00 | 0.39 | 0.39 | 85 | 1009.9 |
| 20260903223018 | 69 | 45 | 8.0 | 11.0 | 0.00 | 0.39 | 0.39 | 85 | 1009.8 |
| 20260903222518 | 69 | 45 | 8.0 | 11.0 | 0.00 | 0.39 | 0.39 | 85 | 1009.8 |
| 20260903222017 | 69 | 45 | 8.0 | 11.0 | 0.00 | 0.39 | 0.39 | 85 | 1009.9 |
| 20260903221517 | 70 | 45 | 8.0 | 11.0 | 0.00 | 0.39 | 0.39 | 84 | 1009.8 |
| 20260903221017 | 70 | 45 | 9.0 | 12.0 | 0.00 | 0.39 | 0.39 | 83 | 1009.9 |
| 20260903220518 | 70 | 45 | 8.0 | 11.0 | 0.00 | 0.39 | 0.39 | 83 | 1009.8 |
| 20260903220018 | 70 | 45 | 8.0 | 12.0 | 0.00 | 0.39 | 0.39 | 83 | 1009.8 |
| 20260903215517 | 70 | 45 | 9.0 | 12.0 | 0.00 | 0.39 | 0.39 | 82 | 1009.7 |
| 20260903215017 | 71 | 45 | 8.0 | 11.0 | 0.00 | 0.39 | 0.39 | 82 | 1009.7 |
| 20260903214517 | 71 | 45 | 9.0 | 13.0 | 0.00 | 0.39 | 0.39 | 82 | 1009.6 |
| 20260903214017 | 71 | 23 | 9.0 | 12.0 | 0.00 | 0.39 | 0.39 | 82 | 1009.7 |
| 20260903213517 | 71 | 45 | 8.0 | 11.0 | 0.00 | 0.39 | 0.39 | 82 | 1009.6 |
| 20260903213037 | 71 | 45 | 9.0 | 12.0 | 0.00 | 0.39 | 0.39 | 82 | 1009.6 |
| 20260903212517 | 71 | 45 | 6.0 | 10.0 | 0.00 | 0.39 | 0.39 | 82 | 1009.6 |
| 20260903212017 | 71 | 45 | 5.0 | 8.0 | 0.00 | 0.39 | 0.39 | 82 | 1009.6 |
| 20260903211517 | 71 | 68 | 6.0 | 10.0 | 0.00 | 0.39 | 0.39 | 81 | 1009.6 |
| 20260903211017 | 71 | 68 | 5.0 | 8.0 | 0.00 | 0.39 | 0.39 | 81 | 1009.7 |
| 20260903210517 | 71 | 68 | 4.0 | 7.0 | 0.00 | 0.39 | 0.39 | 81 | 1009.8 |
| 20260903210017 | 72 | 45 | 4.0 | 9.0 | 0.00 | 0.39 | 0.39 | 81 | 1009.8 |
| 20260903205558 | 72 | 23 | 4.0 | 8.0 | 0.00 | 0.39 | 0.39 | 81 | 1009.7 |
| 20260903205017 | 71 | 23 | 6.0 | 9.0 | 0.00 | 0.39 | 0.39 | 82 | 1009.8 |
| 20260903204517 | 71 | 45 | 4.0 | 8.0 | 0.00 | 0.39 | 0.39 | 83 | 1009.7 |
| 20260903204057 | 70 | 45 | 2.0 | 5.0 | 0.00 | 0.39 | 0.39 | 83 | 1009.7 |
| 20260903203517 | 70 | 45 | 1.0 | 2.0 | 0.00 | 0.39 | 0.39 | 83 | 1009.8 |
| 20260903203017 | 70 | 135 | 1.0 | 2.0 | 0.00 | 0.39 | 0.39 | 83 | 1009.8 |
| 20260903202518 | 70 | 113 | 2.0 | 4.0 | 0.00 | 0.39 | 0.39 | 82 | 1009.9 |
| 20260903202017 | 70 | 113 | 2.0 | 3.0 | 0.00 | 0.39 | 0.39 | 83 | 1009.8 |
| 20260903201517 | 71 | 203 | 2.0 | 3.0 | 0.00 | 0.39 | 0.39 | 83 | 1009.9 |
| 20260903201017 | 70 | 203 | 3.0 | 4.0 | 0.00 | 0.39 | 0.39 | 83 | 1009.9 |
| 20260903200517 | 70 | 203 | 3.0 | 5.0 | 0.00 | 0.39 | 0.39 | 83 | 1009.8 |
| 20260903200017 | 70 | 203 | 3.0 | 4.0 | 0.00 | 0.39 | 0.39 | 83 | 1009.9 |
| 20260903195517 | 70 | 203 | 4.0 | 6.0 | 0.00 | 0.39 | 0.39 | 82 | 1010.0 |
| 20260903195017 | 70 | 203 | 5.0 | 7.0 | 0.00 | 0.39 | 0.39 | 81 | 1010.1 |
| 20260903194517 | 70 | 203 | 5.0 | 7.0 | 0.00 | 0.39 | 0.39 | 81 | 1010.2 |
| 20260903194040 | 70 | 203 | 4.0 | 5.0 | 0.00 | 0.39 | 0.39 | 81 | 1010.2 |
| 20260903193517 | 71 | 203 | 4.0 | 5.0 | 0.00 | 0.39 | 0.39 | 80 | 1010.2 |
| 20260903193017 | 71 | 180 | 3.0 | 4.0 | 0.00 | 0.39 | 0.39 | 80 | 1010.2 |
| 20260903192517 | 72 | 180 | 4.0 | 6.0 | 0.00 | 0.39 | 0.39 | 79 | 1010.2 |
| 20260903192017 | 72 | 23 | 3.0 | 7.0 | 0.00 | 0.39 | 0.39 | 80 | 1010.3 |
| 20260903191517 | 72 | 68 | 4.0 | 7.0 | 0.00 | 0.39 | 0.39 | 79 | 1010.3 |
| 20260903191017 | 72 | 68 | 2.0 | 5.0 | 0.00 | 0.39 | 0.39 | 79 | 1010.4 |
| 20260903190517 | 73 | 68 | 3.0 | 7.0 | 0.00 | 0.39 | 0.39 | 79 | 1010.4 |
| 20260903190017 | 73 | 45 | 6.0 | 10.0 | 0.00 | 0.39 | 0.39 | 79 | 1010.5 |
| 20260903185517 | 73 | 23 | 5.0 | 8.0 | 0.00 | 0.39 | 0.39 | 80 | 1010.7 |
| 20260903185017 | 72 | 23 | 5.0 | 9.0 | 0.00 | 0.39 | 0.39 | 81 | 1010.8 |
| 20260903184537 | 72 | 23 | 6.0 | 9.0 | 0.00 | 0.39 | 0.39 | 81 | 1010.7 |
| 20260903184017 | 72 | 23 | 5.0 | 9.0 | 0.00 | 0.39 | 0.39 | 82 | 1010.9 |
| 20260903183517 | 72 | 23 | 5.0 | 8.0 | 0.00 | 0.39 | 0.39 | 83 | 1011.0 |
| 20260903183017 | 71 | 23 | 6.0 | 9.0 | 0.00 | 0.39 | 0.39 | 83 | 1010.9 |
| 20260903182517 | 71 | 23 | 5.0 | 9.0 | 0.00 | 0.39 | 0.39 | 83 | 1011.0 |
| 20260903182037 | 71 | 45 | 6.0 | 9.0 | 0.00 | 0.39 | 0.39 | 83 | 1011.2 |
| 20260903181517 | 71 | 45 | 7.0 | 10.0 | 0.00 | 0.39 | 0.39 | 82 | 1011.2 |
| 20260903181017 | 71 | 45 | 8.0 | 11.0 | 0.00 | 0.39 | 0.39 | 82 | 1011.3 |
| 20260903180517 | 71 | 23 | 7.0 | 11.0 | 0.00 | 0.39 | 0.39 | 82 | 1011.3 |
| 20260903180017 | 71 | 45 | 8.0 | 11.0 | 0.00 | 0.39 | 0.39 | 83 | 1011.3 |
| 20260903175517 | 71 | 23 | 6.0 | 9.0 | 0.00 | 0.39 | 0.39 | 84 | 1011.3 |
| 20260903175017 | 71 | 23 | 7.0 | 9.0 | 0.00 | 0.39 | 0.39 | 84 | 1011.2 |
| 20260903174537 | 71 | 23 | 9.0 | 11.0 | 0.00 | 0.39 | 0.39 | 84 | 1011.0 |
| 20260903174017 | 71 | 23 | 7.0 | 10.0 | 0.00 | 0.39 | 0.39 | 85 | 1011.1 |
| 20260903173517 | 71 | 23 | 8.0 | 11.0 | 0.00 | 0.39 | 0.39 | 86 | 1011.2 |
| 20260903173037 | 71 | 338 | 7.0 | 11.0 | 0.00 | 0.39 | 0.39 | 86 | 1011.2 |
| 20260903172557 | 71 | 338 | 5.0 | 8.0 | 0.00 | 0.39 | 0.39 | 86 | 1011.2 |
| 20260903172017 | 71 | 338 | 6.0 | 10.0 | 0.00 | 0.39 | 0.39 | 87 | 1011.2 |
| 20260903171516 | 70 | 338 | 7.0 | 10.0 | 0.00 | 0.39 | 0.39 | 89 | 1011.2 |
| 20260903171018 | 69 | 23 | 8.0 | 12.0 | 0.00 | 0.39 | 0.39 | 88 | 1011.0 |
| 20260903170517 | 69 | 23 | 9.0 | 12.0 | 0.00 | 0.39 | 0.39 | 88 | 1010.9 |
| 20260903170057 | 69 | 23 | 8.0 | 11.0 | 0.00 | 0.39 | 0.39 | 89 | 1010.8 |
| 20260903165517 | 69 | 23 | 7.0 | 10.0 | 0.00 | 0.39 | 0.39 | 89 | 1010.9 |
| 20260903165017 | 68 | 45 | 6.0 | 10.0 | 0.00 | 0.39 | 0.39 | 89 | 1010.8 |
| 20260903164517 | 68 | 23 | 5.0 | 8.0 | 0.00 | 0.39 | 0.39 | 89 | 1010.9 |
| 20260903164016 | 68 | 23 | 4.0 | 9.0 | 0.00 | 0.39 | 0.39 | 89 | 1011.1 |
| 20260903163516 | 68 | 23 | 4.0 | 8.0 | 0.00 | 0.39 | 0.39 | 89 | 1011.2 |
| 20260903163017 | 67 | 45 | 4.0 | 7.0 | 0.00 | 0.39 | 0.39 | 89 | 1011.1 |
| 20260903162537 | 67 | 45 | 3.0 | 6.0 | 0.00 | 0.39 | 0.39 | 89 | 1011.2 |
| 20260903162057 | 67 | 45 | 4.0 | 6.0 | 0.00 | 0.39 | 0.39 | 89 | 1011.0 |
| 20260903161516 | 68 | 45 | 2.0 | 5.0 | 0.00 | 0.39 | 0.39 | 89 | 1011.2 |
| 20260903161037 | 68 | 315 | 2.0 | 3.0 | 0.00 | 0.39 | 0.39 | 89 | 1011.4 |
| 20260903160518 | 68 | 315 | 2.0 | 5.0 | 0.00 | 0.39 | 0.39 | 89 | 1011.4 |
| 20260903160017 | 68 | 315 | 3.0 | 5.0 | 0.00 | 0.39 | 0.39 | 89 | 1011.5 |
| 20260903155517 | 68 | 248 | 2.0 | 5.0 | 0.00 | 0.39 | 0.39 | 90 | 1011.6 |
| 20260903155017 | 67 | 270 | 2.0 | 5.0 | 0.00 | 0.39 | 0.39 | 90 | 1011.6 |
| 20260903154537 | 67 | 225 | 2.0 | 4.0 | 0.00 | 0.39 | 0.39 | 90 | 1011.6 |
| 20260903154017 | 67 | 180 | 2.0 | 4.0 | 0.00 | 0.39 | 0.39 | 90 | 1011.5 |
| 20260903153517 | 67 | 203 | 4.0 | 5.0 | 0.00 | 0.39 | 0.39 | 90 | 1011.4 |
| 20260903153017 | 67 | 203 | 4.0 | 5.0 | 0.00 | 0.39 | 0.39 | 90 | 1011.3 |
| 20260903152517 | 67 | 203 | 4.0 | 5.0 | 0.00 | 0.39 | 0.39 | 90 | 1011.5 |
| 20260903152016 | 67 | 203 | 4.0 | 6.0 | 0.00 | 0.39 | 0.39 | 90 | 1011.4 |
| 20260903151516 | 67 | 203 | 4.0 | 5.0 | 0.00 | 0.39 | 0.39 | 90 | 1011.5 |
| 20260903151016 | 67 | 203 | 4.0 | 5.0 | 0.00 | 0.39 | 0.39 | 90 | 1011.7 |
| 20260903150516 | 67 | 203 | 4.0 | 5.0 | 0.00 | 0.39 | 0.39 | 90 | 1011.8 |
| 20260903150016 | 67 | 203 | 4.0 | 6.0 | 0.00 | 0.39 | 0.39 | 90 | 1011.9 |
| 20260903145517 | 66 | 203 | 5.0 | 6.0 | 0.00 | 0.39 | 0.39 | 90 | 1011.9 |
| 20260903145016 | 66 | 203 | 6.0 | 7.0 | 0.00 | 0.39 | 0.39 | 90 | 1011.9 |
| 20260903144516 | 66 | 203 | 5.0 | 7.0 | 0.00 | 0.39 | 0.39 | 90 | 1011.9 |
| 20260903144016 | 67 | 203 | 5.0 | 7.0 | 0.00 | 0.39 | 0.39 | 90 | 1011.9 |
| 20260903143516 | 66 | 203 | 5.0 | 6.0 | 0.00 | 0.39 | 0.39 | 90 | 1012.0 |
| 20260903143016 | 66 | 203 | 4.0 | 6.0 | 0.00 | 0.39 | 0.39 | 90 | 1012.2 |
| 20260903142537 | 66 | 203 | 5.0 | 7.0 | 0.00 | 0.39 | 0.39 | 90 | 1012.3 |
| 20260903142017 | 66 | 203 | 5.0 | 6.0 | 0.00 | 0.39 | 0.39 | 90 | 1012.4 |
| 20260903141516 | 66 | 203 | 6.0 | 7.0 | 0.00 | 0.39 | 0.39 | 90 | 1012.4 |
| 20260903141017 | 66 | 203 | 4.0 | 6.0 | 0.00 | 0.39 | 0.39 | 90 | 1012.4 |
| 20260903140516 | 66 | 203 | 4.0 | 6.0 | 0.00 | 0.39 | 0.39 | 90 | 1012.4 |
| 20260903140016 | 66 | 203 | 5.0 | 6.0 | 0.00 | 0.39 | 0.39 | 90 | 1012.4 |
| 20260903135517 | 66 | 203 | 5.0 | 6.0 | 0.00 | 0.39 | 0.39 | 90 | 1012.4 |
| 20260903135016 | 65 | 203 | 5.0 | 7.0 | 0.01 | 0.39 | 0.39 | 90 | 1012.4 |
| 20260903134517 | 65 | 203 | 6.0 | 7.0 | 0.01 | 0.39 | 0.39 | 90 | 1012.4 |
| 20260903134037 | 66 | 203 | 5.0 | 6.0 | 0.01 | 0.39 | 0.39 | 90 | 1012.3 |
| 20260903133517 | 66 | 203 | 5.0 | 6.0 | 0.01 | 0.39 | 0.39 | 90 | 1012.4 |
| 20260903133016 | 66 | 203 | 6.0 | 7.0 | 0.02 | 0.39 | 0.39 | 90 | 1012.4 |
| 20260903132517 | 66 | 203 | 5.0 | 7.0 | 0.03 | 0.39 | 0.39 | 90 | 1012.3 |
| 20260903132016 | 66 | 225 | 5.0 | 7.0 | 0.03 | 0.39 | 0.39 | 90 | 1012.5 |
| 20260903131516 | 66 | 225 | 5.0 | 7.0 | 0.04 | 0.39 | 0.39 | 89 | 1012.4 |
| 20260903131016 | 66 | 203 | 6.0 | 8.0 | 0.05 | 0.39 | 0.39 | 89 | 1012.5 |
| 20260903130516 | 66 | 203 | 6.0 | 7.0 | 0.06 | 0.39 | 0.39 | 89 | 1012.4 |
| 20260903130017 | 66 | 203 | 7.0 | 8.0 | 0.08 | 0.39 | 0.39 | 89 | 1012.6 |
| 20260903125516 | 66 | 203 | 7.0 | 9.0 | 0.11 | 0.39 | 0.39 | 89 | 1012.6 |
| 20260903125016 | 66 | 203 | 7.0 | 9.0 | 0.12 | 0.38 | 0.38 | 89 | 1012.7 |
| 20260903124517 | 66 | 203 | 8.0 | 10.0 | 0.15 | 0.38 | 0.38 | 89 | 1012.7 |
| 20260903124016 | 66 | 203 | 9.0 | 11.0 | 0.17 | 0.38 | 0.38 | 89 | 1012.8 |
| 20260903123537 | 66 | 203 | 10.0 | 12.0 | 0.18 | 0.38 | 0.38 | 89 | 1012.7 |
| 20260903123017 | 66 | 203 | 9.0 | 12.0 | 0.18 | 0.37 | 0.37 | 89 | 1013.0 |
| 20260903122516 | 66 | 203 | 10.0 | 13.0 | 0.17 | 0.36 | 0.36 | 89 | 1013.1 |
| 20260903122017 | 66 | 203 | 11.0 | 15.0 | 0.18 | 0.36 | 0.36 | 88 | 1013.2 |
| 20260903121516 | 66 | 225 | 9.0 | 13.0 | 0.18 | 0.35 | 0.35 | 88 | 1013.3 |
| 20260903121016 | 66 | 225 | 10.0 | 15.0 | 0.17 | 0.34 | 0.34 | 88 | 1013.3 |
| 20260903120516 | 66 | 248 | 10.0 | 15.0 | 0.16 | 0.33 | 0.33 | 88 | 1013.5 |
| 20260903120016 | 66 | 270 | 9.0 | 13.0 | 0.14 | 0.31 | 0.31 | 88 | 1013.5 |
| 20260903115516 | 66 | 248 | 8.0 | 13.0 | 0.12 | 0.28 | 0.28 | 88 | 1013.4 |
| 20260903115017 | 66 | 225 | 7.0 | 13.0 | 0.11 | 0.26 | 0.26 | 88 | 1013.3 |
| 20260903114516 | 66 | 203 | 11.0 | 15.0 | 0.09 | 0.23 | 0.23 | 88 | 1013.3 |
| 20260903114057 | 66 | 203 | 9.0 | 13.0 | 0.07 | 0.21 | 0.21 | 87 | 1013.2 |
| 20260903113516 | 66 | 203 | 11.0 | 15.0 | 0.06 | 0.20 | 0.20 | 87 | 1013.2 |
| 20260903113016 | 66 | 203 | 11.0 | 15.0 | 0.05 | 0.19 | 0.19 | 87 | 1013.2 |
| 20260903112537 | 66 | 203 | 11.0 | 14.0 | 0.05 | 0.19 | 0.19 | 87 | 1013.2 |
| 20260903112016 | 66 | 203 | 11.0 | 16.0 | 0.04 | 0.18 | 0.18 | 86 | 1013.2 |
| 20260903111516 | 66 | 180 | 13.0 | 18.0 | 0.03 | 0.17 | 0.17 | 86 | 1013.2 |
| 20260903111017 | 66 | 203 | 12.0 | 15.0 | 0.04 | 0.17 | 0.17 | 86 | 1013.2 |
| 20260903110517 | 66 | 203 | 13.0 | 16.0 | 0.05 | 0.17 | 0.17 | 86 | 1013.4 |